TimeCDT,TemperatureF,Dew PointF,Humidity,Sea Level PressureIn,VisibilityMPH,Wind Direction,Wind SpeedMPH,Gust SpeedMPH,PrecipitationIn,Events,Conditions,WindDirDegrees,DateUTC
12:12 AM,37.4,30.2,75,29.83,10.0,Calm,Calm,-,N/A,,Overcast,0,2012-10-15 05:12:00
12:33 AM,35.6,30.2,81,29.83,10.0,Calm,Calm,-,N/A,,Overcast,0,2012-10-15 05:33:00
12:53 AM,33.8,30.2,87,29.83,10.0,Calm,Calm,-,N/A,,Mostly Cloudy,0,2012-10-15 05:53:00
1:12 AM,33.8,30.2,87,29.84,10.0,Calm,Calm,-,N/A,,Mostly Cloudy,0,2012-10-15 06:12:00
1:33 AM,32.0,28.4,87,29.84,10.0,Calm,Calm,-,N/A,,Scattered Clouds,0,2012-10-15 06:33:00
1:53 AM,30.2,28.4,93,29.85,10.0,Calm,Calm,-,N/A,,Mostly Cloudy,0,2012-10-15 06:53:00
2:12 AM,32.0,28.4,87,29.85,10.0,Calm,Calm,-,N/A,,Mostly Cloudy,0,2012-10-15 07:12:00
2:33 AM,28.4,28.4,100,29.86,10.0,Calm,Calm,-,N/A,,Clear,0,2012-10-15 07:33:00
2:53 AM,28.4,26.6,93,29.86,10.0,Calm,Calm,-,N/A,,Scattered Clouds,0,2012-10-15 07:53:00
3:12 AM,28.4,26.6,93,29.85,10.0,Calm,Calm,-,N/A,,Mostly Cloudy,0,2012-10-15 08:12:00
3:33 AM,28.4,26.6,93,29.85,10.0,Calm,Calm,-,N/A,,Scattered Clouds,0,2012-10-15 08:33:00
3:53 AM,28.4,26.6,93,29.85,10.0,Calm,Calm,-,N/A,,Clear,0,2012-10-15 08:53:00
4:13 AM,28.4,26.6,93,29.85,10.0,Calm,Calm,-,N/A,,Clear,0,2012-10-15 09:13:00
4:32 AM,26.6,26.6,100,29.85,10.0,Calm,Calm,-,N/A,,Clear,0,2012-10-15 09:32:00
4:53 AM,26.6,26.6,100,29.86,10.0,Calm,Calm,-,N/A,,Clear,0,2012-10-15 09:53:00
5:12 AM,26.6,24.8,93,29.86,10.0,Calm,Calm,-,N/A,,Clear,0,2012-10-15 10:12:00
5:33 AM,26.6,26.6,100,29.86,10.0,Calm,Calm,-,N/A,,Clear,0,2012-10-15 10:33:00
5:53 AM,26.6,24.8,93,29.86,10.0,Calm,Calm,-,N/A,,Clear,0,2012-10-15 10:53:00
6:12 AM,24.8,24.8,100,29.87,10.0,Calm,Calm,-,N/A,,Clear,0,2012-10-15 11:12:00
6:33 AM,24.8,24.8,100,29.87,10.0,Calm,Calm,-,N/A,,Clear,0,2012-10-15 11:33:00
6:53 AM,24.8,24.8,100,29.88,10.0,Calm,Calm,-,N/A,,Clear,0,2012-10-15 11:53:00
7:12 AM,24.8,23.0,93,29.88,10.0,Calm,Calm,-,N/A,,Clear,0,2012-10-15 12:12:00
7:33 AM,24.8,23.0,93,29.88,10.0,Calm,Calm,-,N/A,,Clear,0,2012-10-15 12:33:00
7:53 AM,24.8,24.8,100,29.88,10.0,Calm,Calm,-,N/A,,Clear,0,2012-10-15 12:53:00
8:12 AM,24.8,23.0,93,29.88,10.0,Calm,Calm,-,N/A,,Scattered Clouds,0,2012-10-15 13:12:00
8:33 AM,26.6,26.6,100,29.89,0.2,Calm,Calm,-,N/A,Fog,Light Freezing Fog,0,2012-10-15 13:33:00
8:53 AM,30.2,28.4,93,29.87,10.0,Calm,Calm,-,N/A,,Scattered Clouds,0,2012-10-15 13:53:00
9:12 AM,32.0,30.2,93,29.89,10.0,Calm,Calm,-,N/A,,Clear,0,2012-10-15 14:12:00
9:33 AM,35.6,33.8,93,29.88,10.0,Calm,Calm,-,N/A,,Clear,0,2012-10-15 14:33:00
9:53 AM,37.4,33.8,87,29.88,10.0,Calm,Calm,-,N/A,,Clear,0,2012-10-15 14:53:00
10:13 AM,37.4,33.8,87,29.90,10.0,Calm,Calm,-,N/A,,Clear,0,2012-10-15 15:13:00
10:32 AM,39.2,33.8,81,29.90,10.0,Calm,Calm,-,N/A,,Clear,0,2012-10-15 15:32:00
10:53 AM,42.8,33.8,70,29.89,10.0,Calm,Calm,-,N/A,,Clear,0,2012-10-15 15:53:00
11:13 AM,44.6,33.8,66,29.88,10.0,Calm,Calm,-,N/A,,Clear,0,2012-10-15 16:13:00
11:33 AM,46.4,33.8,62,29.88,10.0,Calm,Calm,-,N/A,,Clear,0,2012-10-15 16:33:00
11:53 AM,48.2,32.0,54,29.88,10.0,WSW,4.6,-,N/A,,Clear,240,2012-10-15 16:53:00
12:13 PM,48.2,33.8,58,29.88,10.0,WSW,3.5,-,N/A,,Clear,250,2012-10-15 17:13:00
12:33 PM,48.2,32.0,54,29.88,10.0,Calm,Calm,-,N/A,,Clear,0,2012-10-15 17:33:00
12:52 PM,48.2,32.0,54,29.86,10.0,Calm,Calm,-,N/A,,Clear,0,2012-10-15 17:52:00
1:13 PM,51.8,30.2,44,29.86,10.0,Calm,Calm,-,N/A,,Clear,0,2012-10-15 18:13:00
1:33 PM,53.6,30.2,41,29.85,10.0,WSW,4.6,-,N/A,,Clear,240,2012-10-15 18:33:00
1:52 PM,53.6,30.2,41,29.85,10.0,SSE,3.5,-,N/A,,Clear,160,2012-10-15 18:52:00
2:13 PM,53.6,30.2,41,29.83,10.0,SW,3.5,-,N/A,,Clear,230,2012-10-15 19:13:00
2:33 PM,55.4,30.2,38,29.83,10.0,SW,3.5,-,N/A,,Clear,220,2012-10-15 19:33:00
2:53 PM,53.6,30.2,41,29.82,10.0,SE,4.6,-,N/A,,Clear,140,2012-10-15 19:53:00
3:13 PM,53.6,30.2,41,29.82,10.0,Calm,Calm,-,N/A,,Clear,0,2012-10-15 20:13:00
3:33 PM,55.4,30.2,38,29.81,10.0,Calm,Calm,-,N/A,,Clear,0,2012-10-15 20:33:00
3:53 PM,55.4,28.4,36,29.81,10.0,South,5.8,-,N/A,,Clear,180,2012-10-15 20:53:00
4:13 PM,55.4,28.4,36,29.81,10.0,SSE,4.6,-,N/A,,Clear,160,2012-10-15 21:13:00
4:33 PM,55.4,28.4,36,29.80,10.0,SW,8.1,-,N/A,,Clear,230,2012-10-15 21:33:00
4:53 PM,55.4,28.4,36,29.80,10.0,SW,3.5,-,N/A,,Clear,220,2012-10-15 21:53:00
5:13 PM,53.6,30.2,41,29.80,10.0,Calm,Calm,-,N/A,,Clear,0,2012-10-15 22:13:00
5:33 PM,53.6,30.2,41,29.80,10.0,Calm,Calm,-,N/A,,Clear,0,2012-10-15 22:33:00
5:53 PM,51.8,33.8,50,29.80,10.0,SSE,6.9,-,N/A,,Clear,150,2012-10-15 22:53:00
6:13 PM,51.8,33.8,50,29.79,10.0,SSE,8.1,-,N/A,,Scattered Clouds,150,2012-10-15 23:13:00
6:33 PM,50.0,33.8,54,29.79,10.0,SSE,9.2,-,N/A,,Mostly Cloudy,160,2012-10-15 23:33:00
6:52 PM,48.2,33.8,58,29.78,10.0,SSE,8.1,-,N/A,,Overcast,150,2012-10-15 23:52:00
7:13 PM,48.2,33.8,58,29.79,10.0,SSE,6.9,-,N/A,,Mostly Cloudy,160,2012-10-16 00:13:00
7:33 PM,46.4,33.8,62,29.78,10.0,SSE,5.8,-,N/A,,Mostly Cloudy,150,2012-10-16 00:33:00
7:52 PM,46.4,33.8,62,29.77,10.0,SSE,5.8,-,N/A,,Overcast,150,2012-10-16 00:52:00
8:13 PM,46.4,33.8,62,29.77,10.0,SSE,5.8,-,N/A,,Overcast,160,2012-10-16 01:13:00
8:32 PM,46.4,33.8,62,29.76,10.0,SSE,6.9,-,N/A,,Overcast,160,2012-10-16 01:32:00
8:53 PM,46.4,33.8,62,29.77,10.0,SSE,5.8,-,N/A,,Overcast,160,2012-10-16 01:53:00
9:12 PM,46.4,33.8,62,29.76,10.0,SSE,6.9,-,N/A,,Overcast,150,2012-10-16 02:12:00
9:33 PM,44.6,33.8,66,29.77,10.0,South,6.9,-,N/A,,Overcast,180,2012-10-16 02:33:00
9:53 PM,44.6,33.8,66,29.76,10.0,SSE,6.9,-,N/A,Rain,Light Rain,160,2012-10-16 02:53:00
10:12 PM,44.6,33.8,66,29.75,10.0,SSE,9.2,-,N/A,,Overcast,150,2012-10-16 03:12:00
10:33 PM,44.6,35.6,71,29.74,10.0,SSE,8.1,-,N/A,Rain,Light Rain,160,2012-10-16 03:33:00
10:53 PM,44.6,35.6,71,29.74,10.0,SSE,8.1,-,N/A,,Overcast,160,2012-10-16 03:53:00
11:13 PM,44.6,35.6,71,29.73,10.0,SSE,11.5,-,N/A,,Overcast,160,2012-10-16 04:13:00
11:33 PM,44.6,35.6,71,29.73,10.0,SSE,8.1,-,N/A,,Overcast,160,2012-10-16 04:33:00
11:53 PM,44.6,35.6,71,29.73,10.0,SSE,8.1,-,N/A,,Overcast,160,2012-10-16 04:53:00